Waarnemingen

Advertentie
Mijn weer
Uppsala, Zweden (2458): temperatuur & dauwpunt: 19.02.2018 00:00:00 - 25.02.2018 00:00:00 (CET)Uppsala, Zweden (2458): windsnelheid & windstoten: 19.02.2018 00:00:00 - 25.02.2018 00:00:00 (CET)Uppsala, Zweden (2458): windrichting: 19.02.2018 00:00:00 - 25.02.2018 00:00:00 (CET)Uppsala, Zweden (2458): luchtdruk: 19.02.2018 00:00:00 - 25.02.2018 00:00:00 (CET)Uppsala, Zweden (2458): zicht: 19.02.2018 00:00:00 - 25.02.2018 00:00:00 (CET)Uppsala, Zweden (2458): neerslag: 19.02.2018 00:00:00 - 25.02.2018 00:00:00 (CET)
Datum & Tijd tt [°C] td [°C] ff [km/u] ff [kn] fx [km/u] fx [kn] dd ppp [hPa] vv [km] rr [mm]
25.02.2018 00:00:00 -11,6 -12,6 11 6 14 8 N 1040,1 24 0,0
24.02.2018 23:00:00 -12,7 -13,7 7 4 14 8 N 1040,1 27 0,0
24.02.2018 22:00:00 -13,7 -14,9 7 4 11 6 NNW 1040,0 40 0,0
24.02.2018 21:00:00 -13,5 -14,5 7 4 7 4 NNW 1040,0 45 0,0
24.02.2018 20:00:00 -10,0 -11,2 7 4 11 6 N 1039,7 45 0,0
24.02.2018 19:00:00 -8,5 -10,3 7 4 7 4 NNO 1039,7 45 0,0
24.02.2018 18:00:00 -7,4 -9,6 7 4 7 4 NNO 1039,5 35 0,0
24.02.2018 17:00:00 -7,9 -10,3 7 4 11 6 NNO 1039,4 50 0,0
24.02.2018 16:00:00 -6,4 -10,1 7 4 11 6 NO 1039,5 50 0,0
24.02.2018 15:00:00 -6,8 -8,2 7 4 14 8 NO 1039,6 45 0,0
24.02.2018 14:00:00 -5,7 -6,6 7 4 11 6 NNO 1039,7 30 0,0
24.02.2018 13:00:00 -6,1 -6,9 4 2 7 4 NW 1039,8 4,7 0,0
24.02.2018 12:00:00 -7,1 -8,0 0 0 4 2 N 1040,0 17 0,0
24.02.2018 11:00:00 -8,5 -9,7 0 0 0 0 N 1040,1 17 0,0
24.02.2018 10:00:00 -10,6 -11,9 0 0 0 0 N 1040,0 18 0,0
24.02.2018 09:00:00 -14,3 -15,8 0 0 4 2 N 1040,0 28 0,0
24.02.2018 08:00:00 -15,6 -17,3 0 0 4 2 N 1039,8 26 0,0
24.02.2018 07:00:00 -16,7 -18,4 0 0 4 2 N 1039,4 35 0,0
24.02.2018 06:00:00 -16,2 -17,9 0 0 4 2 N 1039,3 4,4 0,0
24.02.2018 05:00:00 -16,8 -18,4 0 0 7 4 N 1038,5 5 0,0
24.02.2018 04:00:00 -17,8 -19,6 0 0 7 4 N 1038,1 0,1 0,0
24.02.2018 03:00:00 -17,7 -19,5 4 2 7 4 NW 1037,6 0,1 0,0
24.02.2018 02:00:00 -17,0 -18,8 4 2 7 4 WNW 1037,1 5 0,0
24.02.2018 01:00:00 -15,3 -16,8 0 0 4 2 N 1036,6 0,1 0,0
24.02.2018 00:00:00 -14,6 -16,0 0 0 7 4 N 1036,2 3,2 0,0
23.02.2018 23:00:00 -15,9 -17,6 4 2 7 4 NW 1035,7 0,1 0,0
23.02.2018 22:00:00 -15,0 -16,4 4 2 7 4 NNW 1035,2 0,1 0,0
23.02.2018 21:00:00 -13,3 -14,5 7 4 7 4 NW 1034,6 0,2 0,0
23.02.2018 20:00:00 -15,9 -17,6 4 2 7 4 NNW 1034,0 0,2 0,0
23.02.2018 19:00:00 -10,8 -11,4 4 2 11 6 N 1033,3 0,1 0,0
23.02.2018 18:00:00 -8,8 -9,6 11 6 14 8 NO 1032,5 50 0,0
23.02.2018 17:00:00 -4,4 -4,9 11 6 22 12 ONO 1031,6 20 1,0
23.02.2018 16:00:00 -4,1 -4,9 14 8 25 14 NNO 1030,7 7 0,3
23.02.2018 15:00:00 -3,4 -6,2 18 10 32 18 NNO 1030,2 35 0,1
23.02.2018 14:00:00 -3,2 -5,7 22 12 32 18 NNO 1029,6 10 0,1
23.02.2018 13:00:00 -3,6 -7,4 14 8 29 16 N 1029,1 45 0,0
23.02.2018 12:00:00 -3,6 -7,7 18 10 32 18 NNO 1028,8 45 0,0
23.02.2018 11:00:00 -3,7 -5,9 18 10 25 14 N 1028,5 7 0,0
23.02.2018 10:00:00 -4,0 -5,5 11 6 22 12 N 1028,0 30 0,0
23.02.2018 09:00:00 -4,6 -6,0 11 6 18 10 N 1027,5 9 0,0
23.02.2018 08:00:00 -5,6 -6,6 7 4 14 8 NW 1027,0 16 0,0
23.02.2018 07:00:00 -5,0 -5,8 7 4 11 6 N 1026,7 13 0,0
23.02.2018 06:00:00 -5,1 -6,1 4 2 7 4 NW 1026,3 12 0,0
23.02.2018 05:00:00 -5,4 -6,4 4 2 7 4 NNW 1026,1 12 0,0
23.02.2018 04:00:00 -5,3 -6,3 7 4 7 4 NO 1026,2 11 0,0
23.02.2018 03:00:00 -5,3 -6,3 4 2 7 4 O 1026,1 14 0,0
23.02.2018 02:00:00 -5,1 -6,2 0 0 4 2 N 1026,3 14 0,0
23.02.2018 01:00:00 -4,7 -5,8 0 0 4 2 N 1026,4 12 0,0
23.02.2018 00:00:00 -4,7 -5,9 4 2 4 2 Z 1026,6 15 0,0
22.02.2018 23:00:00 -4,6 -6,0 4 2 4 2 ZO 1026,9 16 0,0
22.02.2018 22:00:00 -4,6 -5,8 4 2 7 4 ZO 1027,0 12 0,0
22.02.2018 21:00:00 -4,6 -6,3 4 2 7 4 WZW 1027,3 6 0,1
22.02.2018 20:00:00 -4,7 -6,8 4 2 7 4 Z 1027,5 16 0,0
22.02.2018 19:00:00 -5,2 -7,6 4 2 7 4 Z 1027,7 26 0,0
22.02.2018 18:00:00 -5,9 -8,5 4 2 7 4 ZZW 1028,0 40 0,0
22.02.2018 17:00:00 -6,0 -9,5 4 2 7 4 WZW 1028,0 35 0,0
22.02.2018 16:00:00 -4,4 -9,6 7 4 11 6 ZZW 1028,0 45 0,0
22.02.2018 15:00:00 -3,4 -9,8 7 4 11 6 WZW 1028,6 30 0,0
22.02.2018 14:00:00 -4,5 -9,0 0 0 4 2 N 1029,1 28 0,0
22.02.2018 13:00:00 -5,1 -8,8 0 0 4 2 N 1029,6 22 0,0
22.02.2018 12:00:00 -6,0 -8,4 0 0 4 2 N 1029,7 29 0,0
22.02.2018 11:00:00 -8,2 -9,7 0 0 4 2 N 1030,0 11 0,0
22.02.2018 10:00:00 -8,5 -9,6 0 0 4 2 N 1030,4 5 0,0
22.02.2018 09:00:00 -9,6 -10,7 0 0 4 2 N 1030,4 5 0,0
22.02.2018 08:00:00 -10,2 -11,2 0 0 4 2 N 1030,3 9 0,0
22.02.2018 07:00:00 - - - - - - - - - -
22.02.2018 06:00:00 -9,6 -10,7 0 0 4 2 N 1030,1 8 0,0
22.02.2018 05:00:00 -10,3 -11,3 0 0 4 2 N 1030,3 11 0,0
22.02.2018 04:00:00 -10,8 -11,8 0 0 4 2 N 1030,1 10 0,0
22.02.2018 03:00:00 -11,4 -12,4 0 0 4 2 N 1030,2 10 0,0
22.02.2018 02:00:00 -12,3 -13,5 0 0 4 2 N 1030,5 9 0,0
22.02.2018 01:00:00 -13,1 -14,3 0 0 4 2 N 1030,3 1,3 0,0
22.02.2018 00:00:00 -14,2 -15,6 0 0 4 2 N 1030,4 9 0,0
21.02.2018 23:00:00 -14,7 -16,1 0 0 4 2 N 1030,1 5 0,0
21.02.2018 22:00:00 -16,1 -17,6 0 0 0 0 N 1030,2 0,3 0,0
21.02.2018 21:00:00 -14,4 -15,8 0 0 0 0 N 1029,8 0,1 0,0
21.02.2018 20:00:00 -14,7 -16,0 0 0 4 2 N 1029,4 0,2 0,0
21.02.2018 19:00:00 -14,9 -16,3 0 0 7 4 N 1029,0 0,1 0,0
21.02.2018 18:00:00 -12,0 -12,8 0 0 7 4 N 1028,7 0,8 0,0
21.02.2018 17:00:00 -10,2 -11,2 4 2 4 2 W 1028,3 14 0,0
21.02.2018 16:00:00 -6,3 -8,9 0 0 4 2 N 1027,9 22 0,0
21.02.2018 15:00:00 -5,9 -8,5 4 2 4 2 NO 1027,9 30 0,0
21.02.2018 14:00:00 -4,9 -7,8 4 2 4 2 NO 1028,1 29 0,0
21.02.2018 13:00:00 -5,5 -7,5 4 2 4 2 NO 1028,2 30 0,0
21.02.2018 12:00:00 -5,9 -7,3 4 2 4 2 NO 1028,1 18 0,0
21.02.2018 11:00:00 -6,5 -7,3 0 0 4 2 N 1027,9 6 0,0
21.02.2018 10:00:00 -7,0 -7,7 0 0 4 2 N 1027,8 4,4 0,0
21.02.2018 09:00:00 -7,7 -8,4 0 0 4 2 N 1027,6 5 0,0
21.02.2018 08:00:00 -8,1 -8,8 4 2 4 2 WNW 1027,3 10 0,0
21.02.2018 07:00:00 -8,3 -9,0 4 2 7 4 ZZO 1027,0 8 0,0
21.02.2018 06:00:00 -8,2 -8,9 4 2 7 4 OZO 1027,0 9 0,0
21.02.2018 05:00:00 -8,6 -9,3 0 0 4 2 N 1027,4 8 0,0
21.02.2018 04:00:00 -8,8 -9,6 4 2 4 2 WNW 1027,7 9 0,0
21.02.2018 03:00:00 -8,4 -9,2 0 0 0 0 N 1027,7 9 0,0
21.02.2018 02:00:00 -8,4 -9,2 0 0 0 0 N 1027,9 9 0,0
21.02.2018 01:00:00 -8,4 -9,2 0 0 4 2 N 1028,2 11 0,0
21.02.2018 00:00:00 -8,6 -9,4 0 0 4 2 N 1028,5 10 0,0
20.02.2018 23:00:00 -8,7 -9,5 0 0 0 0 N 1028,6 10 0,0
20.02.2018 22:00:00 -9,2 -10,0 0 0 7 4 N 1028,5 11 0,0
20.02.2018 21:00:00 -9,7 -10,8 0 0 4 2 N 1028,5 8 0,0
20.02.2018 20:00:00 -9,9 -10,8 0 0 4 2 N 1028,7 6 0,0
20.02.2018 19:00:00 -12,1 -13,1 0 0 7 4 N 1028,7 2,4 0,0
20.02.2018 18:00:00 -10,3 -10,9 4 2 4 2 NW 1028,5 7 0,0
20.02.2018 17:00:00 -6,7 -8,6 0 0 4 2 N 1028,4 10 0,0
20.02.2018 16:00:00 -5,8 -8,9 0 0 7 4 N 1028,6 6 0,0
20.02.2018 15:00:00 -5,4 -9,1 7 4 7 4 NNO 1028,7 40 0,0
20.02.2018 14:00:00 -3,5 -8,7 0 0 4 2 N 1029,0 35 0,0
20.02.2018 13:00:00 -2,7 -9,2 0 0 7 4 N 1029,2 30 0,0
20.02.2018 12:00:00 -5,7 -9,1 4 2 7 4 NO 1029,4 28 0,0
20.02.2018 11:00:00 -7,0 -8,6 4 2 7 4 N 1029,5 17 0,0
20.02.2018 10:00:00 -7,1 -8,5 4 2 4 2 NW 1029,4 10 0,0
20.02.2018 09:00:00 -7,3 -8,2 4 2 7 4 ONO 1029,5 6 0,0
20.02.2018 08:00:00 -5,8 -6,7 4 2 7 4 ONO 1029,3 6 0,0
20.02.2018 07:00:00 -5,7 -6,5 4 2 7 4 NNO 1029,0 4,7 0,2
20.02.2018 06:00:00 -5,8 -6,6 7 4 11 6 NNW 1029,1 6 0,1
20.02.2018 05:00:00 -5,5 -6,6 4 2 7 4 N 1029,0 2,9 0,0
20.02.2018 04:00:00 -5,4 -6,4 4 2 11 6 N 1028,9 9 0,0
20.02.2018 03:00:00 -5,3 -6,1 7 4 11 6 N 1029,2 5 0,1
20.02.2018 02:00:00 -5,3 -6,1 7 4 11 6 NNW 1029,6 2,9 0,1
20.02.2018 01:00:00 -5,3 -6,4 7 4 11 6 NNW 1029,5 5 0,0
20.02.2018 00:00:00 -5,2 -6,4 7 4 7 4 N 1029,5 7 0,0
19.02.2018 23:00:00 -5,0 -6,7 4 2 11 6 ONO 1029,3 11 0,0
19.02.2018 22:00:00 -4,7 -6,5 7 4 22 12 NNO 1029,4 15 0,0
19.02.2018 21:00:00 -4,4 -7,2 14 8 25 14 NO 1029,3 40 0,0
19.02.2018 20:00:00 -4,0 -5,7 11 6 18 10 N 1029,2 13 0,0
19.02.2018 19:00:00 -4,0 -5,4 11 6 14 8 NNO 1028,9 17 0,0
19.02.2018 18:00:00 -4,0 -5,5 7 4 18 10 NNO 1028,7 12 0,0
19.02.2018 17:00:00 -3,8 -5,1 14 8 18 10 NO 1028,4 15 0,0
19.02.2018 16:00:00 -3,6 -5,1 4 2 11 6 NNO 1028,0 7 0,0
19.02.2018 15:00:00 -3,5 -5,7 7 4 11 6 NNO 1027,8 7 0,0
19.02.2018 14:00:00 -3,3 -5,2 7 4 14 8 NO 1027,4 6 0,0
19.02.2018 13:00:00 -3,3 -5,9 11 6 14 8 ONO 1027,3 13 0,0
19.02.2018 12:00:00 -3,3 -6,1 11 6 14 8 ONO 1027,0 21 0,0
19.02.2018 11:00:00 -4,0 -6,1 4 2 11 6 ONO 1026,7 16 0,0
19.02.2018 10:00:00 -5,0 -7,0 7 4 18 10 O 1026,2 13 0,0
19.02.2018 09:00:00 -4,1 -5,8 11 6 18 10 O 1025,8 13 0,0
19.02.2018 08:00:00 -4,0 -5,5 14 8 18 10 O 1025,1 13 0,0
19.02.2018 07:00:00 -4,0 -5,3 11 6 25 14 ONO 1024,7 10 0,0
19.02.2018 06:00:00 -4,0 -5,3 22 12 25 14 ONO 1024,0 9 0,0
19.02.2018 05:00:00 -3,7 -4,5 18 10 25 14 ONO 1023,6 11 0,0
19.02.2018 04:00:00 -3,3 -3,7 14 8 22 12 ONO 1023,4 13 0,0
19.02.2018 03:00:00 -3,2 -3,5 14 8 18 10 ONO 1023,3 8 0,6
19.02.2018 02:00:00 -3,0 -3,3 14 8 18 10 O 1023,3 2,0 0,7
19.02.2018 01:00:00 -2,7 -2,8 14 8 18 10 O 1023,0 4,1 0,4
19.02.2018 00:00:00 -2,3 -2,4 14 8 18 10 O 1022,9 2,7 0,4

tt = temperatuur
td = dauwpunt
ff = windsnelheid
fx = windstoten
dd = windrichting
ppp = luchtdruk
vv = zicht
rr = neerslag

Weerstations in de omgeving